[Date Prev][Date Next][Thread Prev][Thread Next] - [Date Index][Thread Index][Author Index]

2 Line ISS Keps 7-1



ISS
1 25544U 98067A   02182.07141204 -.00043388  00000-0 -55472-3 0  6184
2 25544  51.6372 343.2721 0007583 303.0282 207.9828 15.58411857206198


----
Via the sarex mailing list at AMSAT.ORG courtesy of AMSAT-NA.
To unsubscribe, send "unsubscribe sarex" to Majordomo@amsat.org



AMSAT Top AMSAT Home